Regional Weather Roundup
Issued by NWS Northern Indiana

Home | Current Version | Previous Version | Graphics & Text | Print | Product List | Glossary On
Versions: 1 2 3 4 5 6 7 8 9 10 11 12 13 14 15 16 17 18 19 20 21 22 23 24 25 26 27 28 29 30 31 32 33 34 35 36 37 38 39 40 41 42 43 44 45 46 47 48 49 50
620
ASUS43 KIWX 271200
RWRIWX

KIWX WEATHER ROUNDUP
NATIONAL WEATHER SERVICE NORTHERN INDIANA
800 AM EDT SAT MAY 27 2017

NOTE: "FAIR" INDICATES FEW OR NO CLOUDS BELOW 12,000 FEET WITH NO
SIGNIFICANT WEATHER AND/OR OBSTRUCTIONS TO VISIBILITY.

* THESE STATIONS ARE NOT UNDER NWS QUALITY CONTROL. THEY ALSO MAY NOT
  REPORT WEATHER SUCH AS PRECIPITATION OR FOG.

INZ001>027-271300-
NORTHERN INDIANA

CITY           SKY/WX    TMP DP  RH WIND       PRES   REMARKS
GARY*          CLOUDY    55  52  88 N6        29.90R
MICHIGAN CITY* FOG       55  55 100 N6        29.90R VSB 1/2
SOUTH BEND     CLOUDY    59  58  96 N3        29.89R
6HR MIN TEMP:  57; 6HR MAX TEMP:  59; 6HR PCP: TRACE;

ELKHART*       PTSUNNY   59  57  94 E5        29.87
GOSHEN         CLOUDY    61  56  83 E7        29.86F
6HR MIN TEMP:  58; 6HR MAX TEMP:  61; 6HR PCP: TRACE;

MONTICELLO*    CLOUDY    60  59  96 N5        29.86S FOG
6HR MIN TEMP:  58; 6HR MAX TEMP:  64;

ANGOLA*        CLOUDY    61  48  63 CALM      29.87S
FORT WAYNE     DRIZZLE   61  59  93 E7        29.86R FOG
6HR MIN TEMP:  61; 6HR MAX TEMP:  62; 6HR PCP:  0.06;

PERU/GRISSOM   CLOUDY    62  62 100 N6        29.85R FOG
6HR MIN TEMP:  62; 6HR MAX TEMP:  65;


$$
INZ028>050-271300-
CENTRAL INDIANA

CITY           SKY/WX    TMP DP  RH WIND       PRES   REMARKS
LAFAYETTE      FOG       60  60 100 NE6       29.86R VSB 1/4
6HR MIN TEMP:  60; 6HR MAX TEMP:  66;

KOKOMO*        CLOUDY    63  62  97 N7        29.86R FOG
6HR MIN TEMP:  63; 6HR MAX TEMP:  66; 6HR PCP: TRACE;

MUNCIE*        CLOUDY    68  65  90 W3        29.85R FOG
6HR MIN TEMP:  65; 6HR MAX TEMP:  68;

INDIANAPOLIS   CLOUDY    68  65  90 NW12      29.86R
6HR MIN TEMP:  66; 6HR MAX TEMP:  69;


$$
MIZ043>046-050>051-056>058-064>065-071>073-077>080-271300-
SOUTHWEST LOWER MICHIGAN

CITY           SKY/WX    TMP DP  RH WIND       PRES   REMARKS
BATTLE CREEK   SUNNY     62  58  86 E5        29.89S
6HR MIN TEMP:  57; 6HR MAX TEMP:  62;

BENTON HARBOR  FOG       58  56  93 CALM      29.89S VSB 1/2
6HR MIN TEMP:  53; 6HR MAX TEMP:  59; 6HR PCP:  0.04;

COLDWATER*     CLOUDY    61  61 100 NE3       29.88S
6HR MIN TEMP:  59; 6HR MAX TEMP:  61;

HILLSDALE*     CLOUDY    59  57  94 CALM      29.89R FOG
HOLLAND        SUNNY     59  55  87 CALM      29.90S
6HR MIN TEMP:  50; 6HR MAX TEMP:  59;

GRAND RAPIDS   MOSUNNY   61  57  87 N3        29.89S
6HR MIN TEMP:  56; 6HR MAX TEMP:  61;

KALAMAZOO      CLOUDY    61  58  90 CALM      29.89S FOG
6HR MIN TEMP:  58; 6HR MAX TEMP:  61;

STURGIS*       CLOUDY    59  58  98 NE5       29.87S FOG
6HR MIN TEMP:  56; 6HR MAX TEMP:  59; 6HR PCP:  0.05;

THREE RIVERS*  PTSUNNY   60  59  99 E3        29.88S
6HR MIN TEMP:  56; 6HR MAX TEMP:  60;


$$
OHZ001>008-015>018-024>025-271300-
NORTHWEST OHIO

CITY           SKY/WX    TMP DP  RH WIND       PRES   REMARKS
DEFIANCE       CLOUDY    60  58  92 CALM      29.87R
6HR MIN TEMP:  59; 6HR MAX TEMP:  60; 6HR PCP:  0.03;

FINDLAY        CLOUDY    62  59  90 E5        29.86R FOG
6HR MIN TEMP:  61; 6HR MAX TEMP:  63; 6HR PCP:  0.39;

TOLEDO EXPRESS CLOUDY    61  61 100 NE5       29.87R
6HR MIN TEMP:  59; 6HR MAX TEMP:  61; 6HR PCP:  0.03;

TOLEDO METCALF PTSUNNY   63  61  93 NE6       29.88R FOG
6HR MIN TEMP:  60; 6HR MAX TEMP:  63; 6HR PCP:  0.06;

LIMA           CLOUDY    62  62 100 E7        29.86R
6HR MIN TEMP:  61; 6HR MAX TEMP:  62; 6HR PCP:  0.12;


$$
AND FOR LAKE MICHIGAN COASTAL AND OPEN LAKE BUOY OBSERVATIONS

STATION/POSITION TEMP    WIND        PRES    VSBY  WAVE
                 AIR SEA DIR/SP/G                  HT/PER
                 (F)     (DEG/KT/KT) (MB)    (MI)  (FT/S)
CALUMET HARBOR    53     340/  5/  8 1011.9R
MICHIGAN CITY     54      30/  7/  8   N/A
BURNS HARBOR      55      40/  6/  7 1012.5R
SOUTH LAKE BUOY   48 46   10/  4/  4 1012.6          0
4 MI NW BRIDGMAN  57 58   50/  8/ 10 1012.4R         1
MICHIGAN CITY     52 53   20/  6/  8   N/A           1/ 2

$$
&&




USA.gov is the U.S. government's official web portal to all federal, state and local government web resources and services.